Year,Month,Day,Hour,Minute,Value (Times are PST for temperature in C)
2012,04,21,00,00,4.10
2012,04,21,00,01,4.10
2012,04,21,00,02,4.10
2012,04,21,00,03,4.10
2012,04,21,00,04,4.10
2012,04,21,00,05,4.00
2012,04,21,00,06,4.00
2012,04,21,00,07,4.00
2012,04,21,00,08,4.00
2012,04,21,00,09,3.90
2012,04,21,00,10,3.90
2012,04,21,00,11,3.90
2012,04,21,00,12,3.80
2012,04,21,00,13,3.80
2012,04,21,00,14,3.80
2012,04,21,00,15,3.80
2012,04,21,00,16,3.70
2012,04,21,00,17,3.70
2012,04,21,00,18,3.70
2012,04,21,00,19,3.70
2012,04,21,00,20,3.70
2012,04,21,00,21,3.60
2012,04,21,00,22,3.60
2012,04,21,00,23,3.60
2012,04,21,00,24,3.60
2012,04,21,00,25,3.60
2012,04,21,00,26,3.50
2012,04,21,00,27,3.50
2012,04,21,00,28,3.50
2012,04,21,00,29,3.50
2012,04,21,00,30,3.50
2012,04,21,00,31,3.50
2012,04,21,00,32,3.50
2012,04,21,00,33,3.50
2012,04,21,00,34,3.50
2012,04,21,00,35,3.50
2012,04,21,00,36,3.50
2012,04,21,00,37,3.50
2012,04,21,00,38,3.50
2012,04,21,00,39,3.50
2012,04,21,00,40,3.40
2012,04,21,00,41,3.40
2012,04,21,00,42,3.40
2012,04,21,00,43,3.40
2012,04,21,00,44,3.40
2012,04,21,00,45,3.40
2012,04,21,00,46,3.40
2012,04,21,00,47,3.40
2012,04,21,00,48,3.40
2012,04,21,00,49,3.40
2012,04,21,00,50,3.30
2012,04,21,00,51,3.30
2012,04,21,00,52,3.30
2012,04,21,00,53,3.30
2012,04,21,00,54,3.30
2012,04,21,00,55,3.30
2012,04,21,00,56,3.30
2012,04,21,00,57,3.30
2012,04,21,00,58,3.30
2012,04,21,00,59,3.30
2012,04,21,01,00,3.30
2012,04,21,01,01,3.30
2012,04,21,01,02,3.30
2012,04,21,01,03,3.20
2012,04,21,01,04,3.20
2012,04,21,01,05,3.10
2012,04,21,01,06,3.10
2012,04,21,01,07,3.10
2012,04,21,01,08,3.00
2012,04,21,01,09,3.00
2012,04,21,01,10,3.00
2012,04,21,01,11,3.00
2012,04,21,01,12,3.00
2012,04,21,01,13,3.00
2012,04,21,01,14,3.00
2012,04,21,01,15,3.00
2012,04,21,01,16,3.00
2012,04,21,01,17,3.00
2012,04,21,01,18,3.00
2012,04,21,01,19,3.00
2012,04,21,01,20,3.00
2012,04,21,01,21,3.00
2012,04,21,01,22,3.00
2012,04,21,01,23,3.10
2012,04,21,01,24,3.10
2012,04,21,01,25,3.00
2012,04,21,01,26,3.00
2012,04,21,01,27,3.00
2012,04,21,01,28,3.00
2012,04,21,01,29,3.00
2012,04,21,01,30,2.90
2012,04,21,01,31,2.90
2012,04,21,01,32,2.90
2012,04,21,01,33,2.90
2012,04,21,01,34,2.90
2012,04,21,01,35,2.90
2012,04,21,01,36,3.00
2012,04,21,01,37,3.00
2012,04,21,01,38,3.00
2012,04,21,01,39,3.00
2012,04,21,01,40,3.00
2012,04,21,01,41,2.90
2012,04,21,01,42,2.90
2012,04,21,01,43,2.90
2012,04,21,01,44,2.90
2012,04,21,01,45,2.90
2012,04,21,01,46,2.90
2012,04,21,01,47,2.90
2012,04,21,01,48,2.90
2012,04,21,01,49,2.90
2012,04,21,01,50,2.90
2012,04,21,01,51,2.90
2012,04,21,01,52,2.90
2012,04,21,01,53,2.90
2012,04,21,01,54,2.80
2012,04,21,01,55,2.80
2012,04,21,01,56,2.80
2012,04,21,01,57,2.80
2012,04,21,01,58,2.80
2012,04,21,01,59,2.80
2012,04,21,02,00,2.80
2012,04,21,02,01,2.80
2012,04,21,02,02,2.80
2012,04,21,02,03,2.80
2012,04,21,02,04,2.80
2012,04,21,02,05,2.80
2012,04,21,02,06,2.80
2012,04,21,02,07,2.80
2012,04,21,02,08,2.80
2012,04,21,02,09,2.80
2012,04,21,02,10,2.80
2012,04,21,02,11,2.80
2012,04,21,02,12,2.80
2012,04,21,02,13,2.80
2012,04,21,02,14,2.80
2012,04,21,02,15,2.80
2012,04,21,02,16,2.80
2012,04,21,02,17,2.80
2012,04,21,02,18,2.80
2012,04,21,02,19,2.80
2012,04,21,02,20,2.80
2012,04,21,02,21,2.80
2012,04,21,02,22,2.80
2012,04,21,02,23,2.80
2012,04,21,02,24,2.80
2012,04,21,02,25,2.80
2012,04,21,02,26,2.80
2012,04,21,02,27,2.80
2012,04,21,02,28,2.70
2012,04,21,02,29,2.70
2012,04,21,02,30,2.70
2012,04,21,02,31,2.70
2012,04,21,02,32,2.70
2012,04,21,02,33,2.70
2012,04,21,02,34,2.70
2012,04,21,02,35,2.70
2012,04,21,02,36,2.70
2012,04,21,02,37,2.70
2012,04,21,02,38,2.70
2012,04,21,02,39,2.70
2012,04,21,02,40,2.70
2012,04,21,02,41,2.70
2012,04,21,02,42,2.70
2012,04,21,02,43,2.70
2012,04,21,02,44,2.70
2012,04,21,02,45,2.60
2012,04,21,02,46,2.60
2012,04,21,02,47,2.60
2012,04,21,02,48,2.60
2012,04,21,02,49,2.60
2012,04,21,02,50,2.60
2012,04,21,02,51,2.60
2012,04,21,02,52,2.60
2012,04,21,02,53,2.60
2012,04,21,02,54,2.60
2012,04,21,02,55,2.60
2012,04,21,02,56,2.70
2012,04,21,02,57,2.60
2012,04,21,02,58,2.60
2012,04,21,02,59,2.70
2012,04,21,03,00,2.70
2012,04,21,03,01,2.70
2012,04,21,03,02,2.70
2012,04,21,03,03,2.60
2012,04,21,03,04,2.60
2012,04,21,03,05,2.70
2012,04,21,03,06,2.60
2012,04,21,03,07,2.60
2012,04,21,03,08,2.60
2012,04,21,03,09,2.70
2012,04,21,03,10,2.60
2012,04,21,03,11,2.60
2012,04,21,03,12,2.70
2012,04,21,03,13,2.70
2012,04,21,03,14,2.70
2012,04,21,03,15,2.70
2012,04,21,03,16,2.70
2012,04,21,03,17,2.70
2012,04,21,03,18,2.60
2012,04,21,03,19,2.60
2012,04,21,03,20,2.60
2012,04,21,03,21,2.60
2012,04,21,03,22,2.60
2012,04,21,03,23,2.60
2012,04,21,03,24,2.60
2012,04,21,03,25,2.60
2012,04,21,03,26,2.60
2012,04,21,03,27,2.60
2012,04,21,03,28,2.60
2012,04,21,03,29,2.60
2012,04,21,03,30,2.60
2012,04,21,03,31,2.60
2012,04,21,03,32,2.60
2012,04,21,03,33,2.60
2012,04,21,03,34,2.60
2012,04,21,03,35,2.60
2012,04,21,03,36,2.60
2012,04,21,03,37,2.60
2012,04,21,03,38,2.60
2012,04,21,03,39,2.60
2012,04,21,03,40,2.60
2012,04,21,03,41,2.60
2012,04,21,03,42,2.60
2012,04,21,03,43,2.60
2012,04,21,03,44,2.60
2012,04,21,03,45,2.60
2012,04,21,03,46,2.60
2012,04,21,03,47,2.60
2012,04,21,03,48,2.50
2012,04,21,03,49,2.50
2012,04,21,03,50,2.50
2012,04,21,03,51,2.50
2012,04,21,03,52,2.50
2012,04,21,03,53,2.50
2012,04,21,03,54,2.50
2012,04,21,03,55,2.50
2012,04,21,03,56,2.50
2012,04,21,03,57,2.50
2012,04,21,03,58,2.50
2012,04,21,03,59,2.50
2012,04,21,04,00,2.50
2012,04,21,04,01,2.50
2012,04,21,04,02,2.50
2012,04,21,04,03,2.50
2012,04,21,04,04,2.50
2012,04,21,04,05,2.50
2012,04,21,04,06,2.50
2012,04,21,04,07,2.50
2012,04,21,04,08,2.50
2012,04,21,04,09,2.50
2012,04,21,04,10,2.50
2012,04,21,04,11,2.50
2012,04,21,04,12,2.50
2012,04,21,04,13,2.50
2012,04,21,04,14,2.50
2012,04,21,04,15,2.50
2012,04,21,04,16,2.50
2012,04,21,04,17,2.50
2012,04,21,04,18,2.50
2012,04,21,04,19,2.50
2012,04,21,04,20,2.50
2012,04,21,04,21,2.50
2012,04,21,04,22,2.50
2012,04,21,04,23,2.50
2012,04,21,04,24,2.50
2012,04,21,04,25,2.50
2012,04,21,04,26,2.50
2012,04,21,04,27,2.50
2012,04,21,04,28,2.50
2012,04,21,04,29,2.50
2012,04,21,04,30,2.50
2012,04,21,04,31,2.50
2012,04,21,04,32,2.50
2012,04,21,04,33,2.60
2012,04,21,04,34,2.50
2012,04,21,04,35,2.50
2012,04,21,04,36,2.50
2012,04,21,04,37,2.50
2012,04,21,04,38,2.50
2012,04,21,04,39,2.50
2012,04,21,04,40,2.50
2012,04,21,04,41,2.50
2012,04,21,04,42,2.50
2012,04,21,04,43,2.50
2012,04,21,04,44,2.40
2012,04,21,04,45,2.40
2012,04,21,04,46,2.40
2012,04,21,04,47,2.40
2012,04,21,04,48,2.40
2012,04,21,04,49,2.40
2012,04,21,04,50,2.40
2012,04,21,04,51,2.50
2012,04,21,04,52,2.50
2012,04,21,04,53,2.50
2012,04,21,04,54,2.50
2012,04,21,04,55,2.50
2012,04,21,04,56,2.50
2012,04,21,04,57,2.50
2012,04,21,04,58,2.60
2012,04,21,04,59,2.60
2012,04,21,05,00,2.60
2012,04,21,05,01,2.60
2012,04,21,05,02,2.60
2012,04,21,05,03,2.60
2012,04,21,05,04,2.60
2012,04,21,05,05,2.60
2012,04,21,05,06,2.60
2012,04,21,05,07,2.60
2012,04,21,05,08,2.60
2012,04,21,05,09,2.60
2012,04,21,05,10,2.60
2012,04,21,05,11,2.60
2012,04,21,05,12,2.70
2012,04,21,05,13,2.70
2012,04,21,05,14,2.70
2012,04,21,05,15,2.70
2012,04,21,05,16,2.70
2012,04,21,05,17,2.70
2012,04,21,05,18,2.70
2012,04,21,05,19,2.70
2012,04,21,05,20,2.70
2012,04,21,05,21,2.70
2012,04,21,05,22,2.70
2012,04,21,05,23,2.70
2012,04,21,05,24,2.70
2012,04,21,05,25,2.70
2012,04,21,05,26,2.70
2012,04,21,05,27,2.70
2012,04,21,05,28,2.80
2012,04,21,05,29,2.80
2012,04,21,05,30,2.80
2012,04,21,05,31,2.80
2012,04,21,05,32,2.80
2012,04,21,05,33,2.80
2012,04,21,05,34,2.80
2012,04,21,05,35,2.80
2012,04,21,05,36,2.80
2012,04,21,05,37,2.80
2012,04,21,05,38,2.80
2012,04,21,05,39,2.80
2012,04,21,05,40,2.80
2012,04,21,05,41,2.80
2012,04,21,05,42,2.80
2012,04,21,05,43,2.80
2012,04,21,05,44,2.80
2012,04,21,05,45,2.80
2012,04,21,05,46,2.80
2012,04,21,05,47,2.80
2012,04,21,05,48,2.80
2012,04,21,05,49,2.80
2012,04,21,05,50,2.80
2012,04,21,05,51,2.80
2012,04,21,05,52,2.80
2012,04,21,05,53,2.80
2012,04,21,05,54,2.90
2012,04,21,05,55,2.90
2012,04,21,05,56,2.90
2012,04,21,05,57,2.90
2012,04,21,05,58,2.90
2012,04,21,05,59,2.90
2012,04,21,06,00,2.90
2012,04,21,06,01,3.00
2012,04,21,06,02,3.00
2012,04,21,06,03,3.00
2012,04,21,06,04,3.00
2012,04,21,06,05,3.00
2012,04,21,06,06,3.00
2012,04,21,06,07,3.00
2012,04,21,06,08,3.00
2012,04,21,06,09,3.00
2012,04,21,06,10,3.00
2012,04,21,06,11,3.00
2012,04,21,06,12,3.00
2012,04,21,06,13,3.00
2012,04,21,06,14,3.00
2012,04,21,06,15,3.00
2012,04,21,06,16,3.00
2012,04,21,06,17,3.10
2012,04,21,06,18,3.10
2012,04,21,06,19,3.10
2012,04,21,06,20,3.10
2012,04,21,06,21,3.10
2012,04,21,06,22,3.10
2012,04,21,06,23,3.10
2012,04,21,06,24,3.10
2012,04,21,06,25,3.10
2012,04,21,06,26,3.10
2012,04,21,06,27,3.10
2012,04,21,06,28,3.10
2012,04,21,06,29,3.10
2012,04,21,06,30,3.10
2012,04,21,06,31,3.10
2012,04,21,06,32,3.10
2012,04,21,06,33,3.10
2012,04,21,06,34,3.10
2012,04,21,06,35,3.20
2012,04,21,06,36,3.20
2012,04,21,06,37,3.20
2012,04,21,06,38,3.20
2012,04,21,06,39,3.30
2012,04,21,06,40,3.30
2012,04,21,06,41,3.30
2012,04,21,06,42,3.30
2012,04,21,06,43,3.40
2012,04,21,06,44,3.40
2012,04,21,06,45,3.40
2012,04,21,06,46,3.40
2012,04,21,06,47,3.40
2012,04,21,06,48,3.50
2012,04,21,06,49,3.50
2012,04,21,06,50,3.50
2012,04,21,06,51,3.60
2012,04,21,06,52,3.60
2012,04,21,06,53,3.60
2012,04,21,06,54,3.60
2012,04,21,06,55,3.60
2012,04,21,06,56,3.60
2012,04,21,06,57,3.70
2012,04,21,06,58,3.70
2012,04,21,06,59,3.70
2012,04,21,07,00,3.70
2012,04,21,07,01,3.70
2012,04,21,07,02,3.70
2012,04,21,07,03,3.70
2012,04,21,07,04,3.70
2012,04,21,07,05,3.80
2012,04,21,07,06,3.80
2012,04,21,07,07,3.80
2012,04,21,07,08,3.80
2012,04,21,07,09,3.80
2012,04,21,07,10,3.80
2012,04,21,07,11,3.80
2012,04,21,07,12,3.90
2012,04,21,07,13,3.90
2012,04,21,07,14,3.90
2012,04,21,07,15,3.90
2012,04,21,07,16,3.90
2012,04,21,07,17,3.90
2012,04,21,07,18,3.90
2012,04,21,07,19,3.90
2012,04,21,07,20,3.90
2012,04,21,07,21,4.00
2012,04,21,07,22,4.00
2012,04,21,07,23,4.00
2012,04,21,07,24,4.00
2012,04,21,07,25,4.00
2012,04,21,07,26,4.00
2012,04,21,07,27,4.00
2012,04,21,07,28,4.00
2012,04,21,07,29,4.10
2012,04,21,07,30,4.10
2012,04,21,07,31,4.10
2012,04,21,07,32,4.10
2012,04,21,07,33,4.20
2012,04,21,07,34,4.20
2012,04,21,07,35,4.20
2012,04,21,07,36,4.20
2012,04,21,07,37,4.30
2012,04,21,07,38,4.30
2012,04,21,07,39,4.30
2012,04,21,07,40,4.30
2012,04,21,07,41,4.30
2012,04,21,07,42,4.40
2012,04,21,07,43,4.40
2012,04,21,07,44,4.40
2012,04,21,07,45,4.50
2012,04,21,07,46,4.50
2012,04,21,07,47,4.60
2012,04,21,07,48,4.60
2012,04,21,07,49,4.60
2012,04,21,07,50,4.70
2012,04,21,07,51,4.70
2012,04,21,07,52,4.70
2012,04,21,07,53,4.70
2012,04,21,07,54,4.80
2012,04,21,07,55,4.80
2012,04,21,07,56,4.80
2012,04,21,07,57,4.80
2012,04,21,07,58,4.90
2012,04,21,07,59,4.90
2012,04,21,08,00,4.90
2012,04,21,08,01,5.00
2012,04,21,08,02,5.00
2012,04,21,08,03,5.10
2012,04,21,08,04,5.10
2012,04,21,08,05,5.10
2012,04,21,08,06,5.20
2012,04,21,08,07,5.20
2012,04,21,08,08,5.30
2012,04,21,08,09,5.30
2012,04,21,08,10,5.40
2012,04,21,08,11,5.40
2012,04,21,08,12,5.40
2012,04,21,08,13,5.50
2012,04,21,08,14,5.50
2012,04,21,08,15,5.60
2012,04,21,08,16,5.60
2012,04,21,08,17,5.70
2012,04,21,08,18,5.70
2012,04,21,08,19,5.80
2012,04,21,08,20,5.80
2012,04,21,08,21,5.80
2012,04,21,08,22,5.90
2012,04,21,08,23,5.90
2012,04,21,08,24,6.00
2012,04,21,08,25,6.10
2012,04,21,08,26,6.20
2012,04,21,08,27,6.20
2012,04,21,08,28,6.30
2012,04,21,08,29,6.40
2012,04,21,08,30,6.40
2012,04,21,08,31,6.50
2012,04,21,08,32,6.50
2012,04,21,08,33,6.60
2012,04,21,08,34,6.60
2012,04,21,08,35,6.70
2012,04,21,08,36,6.80
2012,04,21,08,37,6.80
2012,04,21,08,38,6.90
2012,04,21,08,39,7.00
2012,04,21,08,40,7.10
2012,04,21,08,41,7.20
2012,04,21,08,42,7.20
2012,04,21,08,43,7.30
2012,04,21,08,44,7.40
2012,04,21,08,45,7.50
2012,04,21,08,46,7.50
2012,04,21,08,47,7.50
2012,04,21,08,48,7.50
2012,04,21,08,49,7.50
2012,04,21,08,50,7.50
2012,04,21,08,51,7.50
2012,04,21,08,52,7.50
2012,04,21,08,53,7.50
2012,04,21,08,54,7.50
2012,04,21,08,55,7.40
2012,04,21,08,56,7.40
2012,04,21,08,57,7.40
2012,04,21,08,58,7.40
2012,04,21,08,59,7.40
2012,04,21,09,00,7.40
2012,04,21,09,01,7.40
2012,04,21,09,02,7.40
2012,04,21,09,03,7.40
2012,04,21,09,04,7.40
2012,04,21,09,05,7.30
2012,04,21,09,06,7.30
2012,04,21,09,07,7.30
2012,04,21,09,08,7.30
2012,04,21,09,09,7.30
2012,04,21,09,10,7.30
2012,04,21,09,11,7.30
2012,04,21,09,12,7.30
2012,04,21,09,13,7.30
2012,04,21,09,14,7.40
2012,04,21,09,15,7.40
2012,04,21,09,16,7.50
2012,04,21,09,17,7.50
2012,04,21,09,18,7.60
2012,04,21,09,19,7.60
2012,04,21,09,20,7.70
2012,04,21,09,21,7.80
2012,04,21,09,22,7.80
2012,04,21,09,23,7.80
2012,04,21,09,24,7.90
2012,04,21,09,25,8.00
2012,04,21,09,26,8.00
2012,04,21,09,27,8.10
2012,04,21,09,28,8.10
2012,04,21,09,29,8.20
2012,04,21,09,30,8.20
2012,04,21,09,31,8.20
2012,04,21,09,32,8.20
2012,04,21,09,33,8.30
2012,04,21,09,34,8.30
2012,04,21,09,35,8.30
2012,04,21,09,36,8.30
2012,04,21,09,37,8.30
2012,04,21,09,38,8.30
2012,04,21,09,39,8.30
2012,04,21,09,40,8.30
2012,04,21,09,41,8.30
2012,04,21,09,42,8.30
2012,04,21,09,43,8.40
2012,04,21,09,44,8.40
2012,04,21,09,45,8.40
2012,04,21,09,46,8.40
2012,04,21,09,47,8.50
2012,04,21,09,48,8.60
2012,04,21,09,49,8.60
2012,04,21,09,50,8.60
2012,04,21,09,51,8.70
2012,04,21,09,52,8.70
2012,04,21,09,53,8.80
2012,04,21,09,54,8.80
2012,04,21,09,55,8.90
2012,04,21,09,56,8.90
2012,04,21,09,57,9.00
2012,04,21,09,58,9.00
2012,04,21,09,59,9.10
2012,04,21,10,00,9.20
2012,04,21,10,01,9.20
2012,04,21,10,02,9.30
2012,04,21,10,03,9.30
2012,04,21,10,04,9.30
2012,04,21,10,05,9.30
2012,04,21,10,06,9.20
2012,04,21,10,07,9.20
2012,04,21,10,08,9.20
2012,04,21,10,09,9.10
2012,04,21,10,10,9.10
2012,04,21,10,11,9.10
2012,04,21,10,12,9.10
2012,04,21,10,13,9.10
2012,04,21,10,14,9.10
2012,04,21,10,15,9.10
2012,04,21,10,16,9.10
2012,04,21,10,17,9.10
2012,04,21,10,18,9.10
2012,04,21,10,19,9.10
2012,04,21,10,20,9.10
2012,04,21,10,21,9.10
2012,04,21,10,22,9.10
2012,04,21,10,23,9.10
2012,04,21,10,24,9.20
2012,04,21,10,25,9.20
2012,04,21,10,26,9.20
2012,04,21,10,27,9.30
2012,04,21,10,28,9.30
2012,04,21,10,29,9.40
2012,04,21,10,30,9.50
2012,04,21,10,31,9.50
2012,04,21,10,32,9.60
2012,04,21,10,33,9.60
2012,04,21,10,34,9.70
2012,04,21,10,35,9.70
2012,04,21,10,36,9.80
2012,04,21,10,37,9.80
2012,04,21,10,38,9.90
2012,04,21,10,39,9.90
2012,04,21,10,40,10.00
2012,04,21,10,41,10.00
2012,04,21,10,42,10.10
2012,04,21,10,43,10.10
2012,04,21,10,44,10.10
2012,04,21,10,45,10.10
2012,04,21,10,46,10.00
2012,04,21,10,47,9.90
2012,04,21,10,48,9.90
2012,04,21,10,49,9.90
2012,04,21,10,50,9.90
2012,04,21,10,51,9.90
2012,04,21,10,52,9.90
2012,04,21,10,53,9.90
2012,04,21,10,54,10.00
2012,04,21,10,55,10.00
2012,04,21,10,56,10.10
2012,04,21,10,57,10.10
2012,04,21,10,58,10.10
2012,04,21,10,59,10.20
2012,04,21,11,00,10.20
2012,04,21,11,01,10.20
2012,04,21,11,02,10.30
2012,04,21,11,03,10.30
2012,04,21,11,04,10.20
2012,04,21,11,05,10.20
2012,04,21,11,06,10.20
2012,04,21,11,07,10.20
2012,04,21,11,08,10.20
2012,04,21,11,09,10.20
2012,04,21,11,10,10.20
2012,04,21,11,11,10.20
2012,04,21,11,12,10.30
2012,04,21,11,13,10.40
2012,04,21,11,14,10.50
2012,04,21,11,15,10.60
2012,04,21,11,16,10.50
2012,04,21,11,17,10.50
2012,04,21,11,18,10.60
2012,04,21,11,19,10.60
2012,04,21,11,20,10.60
2012,04,21,11,21,10.60
2012,04,21,11,22,10.50
2012,04,21,11,23,10.50
2012,04,21,11,24,10.50
2012,04,21,11,25,10.50
2012,04,21,11,26,10.50
2012,04,21,11,27,10.50
2012,04,21,11,28,10.50
2012,04,21,11,29,10.50
2012,04,21,11,30,10.50
2012,04,21,11,31,10.50
2012,04,21,11,32,10.50
2012,04,21,11,33,10.60
2012,04,21,11,34,10.60
2012,04,21,11,35,10.60
2012,04,21,11,36,10.70
2012,04,21,11,37,10.70
2012,04,21,11,38,10.70
2012,04,21,11,39,10.70
2012,04,21,11,40,10.70
2012,04,21,11,41,10.70
2012,04,21,11,42,10.80
2012,04,21,11,43,10.80
2012,04,21,11,44,10.80
2012,04,21,11,45,10.90
2012,04,21,11,46,11.00
2012,04,21,11,47,11.00
2012,04,21,11,48,11.10
2012,04,21,11,49,11.10
2012,04,21,11,50,11.10
2012,04,21,11,51,11.10
2012,04,21,11,52,11.10
2012,04,21,11,53,11.10
2012,04,21,11,54,11.10
2012,04,21,11,55,11.10
2012,04,21,11,56,11.10
2012,04,21,11,57,11.10
2012,04,21,11,58,11.10
2012,04,21,11,59,11.10
2012,04,21,12,00,11.20
2012,04,21,12,01,11.20
2012,04,21,12,02,11.20
2012,04,21,12,03,11.20
2012,04,21,12,04,11.20
2012,04,21,12,05,11.20
2012,04,21,12,06,11.20
2012,04,21,12,07,11.30
2012,04,21,12,08,11.30
2012,04,21,12,09,11.30
2012,04,21,12,10,11.40
2012,04,21,12,11,11.40
2012,04,21,12,12,11.40
2012,04,21,12,13,11.40
2012,04,21,12,14,11.40
2012,04,21,12,15,11.40
2012,04,21,12,16,11.40
2012,04,21,12,17,11.50
2012,04,21,12,18,11.50
2012,04,21,12,19,11.60
2012,04,21,12,20,11.70
2012,04,21,12,21,11.80
2012,04,21,12,22,11.80
2012,04,21,12,23,11.80
2012,04,21,12,24,11.80
2012,04,21,12,25,11.90
2012,04,21,12,26,11.90
2012,04,21,12,27,12.00
2012,04,21,12,28,12.00
2012,04,21,12,29,12.00
2012,04,21,12,30,12.00
2012,04,21,12,31,12.00
2012,04,21,12,32,12.00
2012,04,21,12,33,12.10
2012,04,21,12,34,12.10
2012,04,21,12,35,12.10
2012,04,21,12,36,12.20
2012,04,21,12,37,12.20
2012,04,21,12,38,12.20
2012,04,21,12,39,12.20
2012,04,21,12,40,12.20
2012,04,21,12,41,12.20
2012,04,21,12,42,12.20
2012,04,21,12,43,12.20
2012,04,21,12,44,12.20
2012,04,21,12,45,12.20
2012,04,21,12,46,12.20
2012,04,21,12,47,12.20
2012,04,21,12,48,12.20
2012,04,21,12,49,12.10
2012,04,21,12,50,12.10
2012,04,21,12,51,12.10
2012,04,21,12,52,12.10
2012,04,21,12,53,12.10
2012,04,21,12,54,12.10
2012,04,21,12,55,12.20
2012,04,21,12,56,12.30
2012,04,21,12,57,12.30
2012,04,21,12,58,12.30
2012,04,21,12,59,12.30
2012,04,21,13,00,12.20
2012,04,21,13,01,12.20
2012,04,21,13,02,12.20
2012,04,21,13,03,12.20
2012,04,21,13,04,12.20
2012,04,21,13,05,12.20
2012,04,21,13,06,12.20
2012,04,21,13,07,12.20
2012,04,21,13,08,12.20
2012,04,21,13,09,12.20
2012,04,21,13,10,12.20
2012,04,21,13,11,12.20
2012,04,21,13,12,12.20
2012,04,21,13,13,12.20
2012,04,21,13,14,12.30
2012,04,21,13,15,12.30
2012,04,21,13,16,12.30
2012,04,21,13,17,12.30
2012,04,21,13,18,12.20
2012,04,21,13,19,12.20
2012,04,21,13,20,12.10
2012,04,21,13,21,12.10
2012,04,21,13,22,12.10
2012,04,21,13,23,12.00
2012,04,21,13,24,12.00
2012,04,21,13,25,12.00
2012,04,21,13,26,12.00
2012,04,21,13,27,12.00
2012,04,21,13,28,12.00
2012,04,21,13,29,12.00
2012,04,21,13,30,12.00
2012,04,21,13,31,12.00
2012,04,21,13,32,12.00
2012,04,21,13,33,12.00
2012,04,21,13,34,12.00
2012,04,21,13,35,12.00
2012,04,21,13,36,12.10
2012,04,21,13,37,12.10
2012,04,21,13,38,12.20
2012,04,21,13,39,12.20
2012,04,21,13,40,12.30
2012,04,21,13,41,12.30
2012,04,21,13,42,12.30
2012,04,21,13,43,12.30
2012,04,21,13,44,12.30
2012,04,21,13,45,12.30
2012,04,21,13,46,12.40
2012,04,21,13,47,12.40
2012,04,21,13,48,12.40
2012,04,21,13,49,12.40
2012,04,21,13,50,12.40
2012,04,21,13,51,12.30
2012,04,21,13,52,12.30
2012,04,21,13,53,12.30
2012,04,21,13,54,12.30
2012,04,21,13,55,12.30
2012,04,21,13,56,12.30
2012,04,21,13,57,12.30
2012,04,21,13,58,12.30
2012,04,21,13,59,12.30
2012,04,21,14,00,12.30
2012,04,21,14,01,12.40
2012,04,21,14,02,12.40
2012,04,21,14,03,12.40
2012,04,21,14,04,12.40
2012,04,21,14,05,12.30
2012,04,21,14,06,12.30
2012,04,21,14,07,12.30
2012,04,21,14,08,12.30
2012,04,21,14,09,12.40
2012,04,21,14,10,12.40
2012,04,21,14,11,12.40
2012,04,21,14,12,12.40
2012,04,21,14,13,12.40
2012,04,21,14,14,12.40
2012,04,21,14,15,12.50
2012,04,21,14,16,12.50
2012,04,21,14,17,12.50
2012,04,21,14,18,12.60
2012,04,21,14,19,12.60
2012,04,21,14,20,12.60
2012,04,21,14,21,12.70
2012,04,21,14,22,12.80
2012,04,21,14,23,12.80
2012,04,21,14,24,12.80
2012,04,21,14,25,12.90
2012,04,21,14,26,12.90
2012,04,21,14,27,13.00
2012,04,21,14,28,13.00
2012,04,21,14,29,13.10
2012,04,21,14,30,13.20
2012,04,21,14,31,13.20
2012,04,21,14,32,13.30
2012,04,21,14,33,13.30
2012,04,21,14,34,13.30
2012,04,21,14,35,13.40
2012,04,21,14,36,13.40
2012,04,21,14,37,13.30
2012,04,21,14,38,13.30
2012,04,21,14,39,13.30
2012,04,21,14,40,13.20
2012,04,21,14,41,13.20
2012,04,21,14,42,13.20
2012,04,21,14,43,13.30
2012,04,21,14,44,13.30
2012,04,21,14,45,13.30
2012,04,21,14,46,13.40
2012,04,21,14,47,13.40
2012,04,21,14,48,13.40
2012,04,21,14,49,13.30
2012,04,21,14,50,13.30
2012,04,21,14,51,13.20
2012,04,21,14,52,13.20
2012,04,21,14,53,13.10
2012,04,21,14,54,13.10
2012,04,21,14,55,13.10
2012,04,21,14,56,13.10
2012,04,21,14,57,13.10
2012,04,21,14,58,13.10
2012,04,21,14,59,13.10
2012,04,21,15,00,13.20
2012,04,21,15,01,13.20
2012,04,21,15,02,13.20
2012,04,21,15,03,13.20
2012,04,21,15,04,13.20
2012,04,21,15,05,13.20
2012,04,21,15,06,13.10
2012,04,21,15,07,13.10
2012,04,21,15,08,13.00
2012,04,21,15,09,13.00
2012,04,21,15,10,13.00
2012,04,21,15,11,13.00
2012,04,21,15,12,13.00
2012,04,21,15,13,13.00
2012,04,21,15,14,13.00
2012,04,21,15,15,13.10
2012,04,21,15,16,13.10
2012,04,21,15,17,13.10
2012,04,21,15,18,13.20
2012,04,21,15,19,13.20
2012,04,21,15,20,13.20
2012,04,21,15,21,13.20
2012,04,21,15,22,13.20
2012,04,21,15,23,13.20
2012,04,21,15,24,13.10
2012,04,21,15,25,13.10
2012,04,21,15,26,13.10
2012,04,21,15,27,13.10
2012,04,21,15,28,13.10
2012,04,21,15,29,13.10
2012,04,21,15,30,13.20
2012,04,21,15,31,13.20
2012,04,21,15,32,13.20
2012,04,21,15,33,13.20
2012,04,21,15,34,13.20
2012,04,21,15,35,13.30
2012,04,21,15,36,13.30
2012,04,21,15,37,13.30
2012,04,21,15,38,13.30
2012,04,21,15,39,13.30
2012,04,21,15,40,13.40
2012,04,21,15,41,13.40
2012,04,21,15,42,13.50
2012,04,21,15,43,13.50
2012,04,21,15,44,13.50
2012,04,21,15,45,13.60
2012,04,21,15,46,13.60
2012,04,21,15,47,13.60
2012,04,21,15,48,13.60
2012,04,21,15,49,13.60
2012,04,21,15,50,13.60
2012,04,21,15,51,13.50
2012,04,21,15,52,13.40
2012,04,21,15,53,13.40
2012,04,21,15,54,13.30
2012,04,21,15,55,13.30
2012,04,21,15,56,13.30
2012,04,21,15,57,13.30
2012,04,21,15,58,13.30
2012,04,21,15,59,13.30
2012,04,21,16,00,13.30
2012,04,21,16,01,13.30
2012,04,21,16,02,13.30
2012,04,21,16,03,13.40
2012,04,21,16,04,13.40
2012,04,21,16,05,13.40
2012,04,21,16,06,13.40
2012,04,21,16,07,13.40
2012,04,21,16,08,13.40
2012,04,21,16,09,13.40
2012,04,21,16,10,13.40
2012,04,21,16,11,13.40
2012,04,21,16,12,13.50
2012,04,21,16,13,13.50
2012,04,21,16,14,13.60
2012,04,21,16,15,13.60
2012,04,21,16,16,13.60
2012,04,21,16,17,13.60
2012,04,21,16,18,13.60
2012,04,21,16,19,13.60
2012,04,21,16,20,13.60
2012,04,21,16,21,13.70
2012,04,21,16,22,13.70
2012,04,21,16,23,13.80
2012,04,21,16,24,13.80
2012,04,21,16,25,13.80
2012,04,21,16,26,13.80
2012,04,21,16,27,13.80
2012,04,21,16,28,13.80
2012,04,21,16,29,13.70
2012,04,21,16,30,13.70
2012,04,21,16,31,13.70
2012,04,21,16,32,13.70
2012,04,21,16,33,13.70
2012,04,21,16,34,13.80
2012,04,21,16,35,13.80
2012,04,21,16,36,13.80
2012,04,21,16,37,13.80
2012,04,21,16,38,13.80
2012,04,21,16,39,13.80
2012,04,21,16,40,13.80
2012,04,21,16,41,13.80
2012,04,21,16,42,13.80
2012,04,21,16,43,13.80
2012,04,21,16,44,13.80
2012,04,21,16,45,13.80
2012,04,21,16,46,13.80
2012,04,21,16,47,13.80
2012,04,21,16,48,13.70
2012,04,21,16,49,13.70
2012,04,21,16,50,13.70
2012,04,21,16,51,13.70
2012,04,21,16,52,13.70
2012,04,21,16,53,13.80
2012,04,21,16,54,13.80
2012,04,21,16,55,13.80
2012,04,21,16,56,13.90
2012,04,21,16,57,13.90
2012,04,21,16,58,13.90
2012,04,21,16,59,14.00
2012,04,21,17,00,14.00
2012,04,21,17,01,14.00
2012,04,21,17,02,14.00
2012,04,21,17,03,14.00
2012,04,21,17,04,14.00
2012,04,21,17,05,14.00
2012,04,21,17,06,14.00
2012,04,21,17,07,14.00
2012,04,21,17,08,14.00
2012,04,21,17,09,14.00
2012,04,21,17,10,14.10
2012,04,21,17,11,14.10
2012,04,21,17,12,14.10
2012,04,21,17,13,14.10
2012,04,21,17,14,14.10
2012,04,21,17,15,14.10
2012,04,21,17,16,14.10
2012,04,21,17,17,14.10
2012,04,21,17,18,14.10
2012,04,21,17,19,14.00
2012,04,21,17,20,13.90
2012,04,21,17,21,13.80
2012,04,21,17,22,13.80
2012,04,21,17,23,13.80
2012,04,21,17,24,13.80
2012,04,21,17,25,13.80
2012,04,21,17,26,13.80
2012,04,21,17,27,13.80
2012,04,21,17,28,13.80
2012,04,21,17,29,13.80
2012,04,21,17,30,13.80
2012,04,21,17,31,13.80
2012,04,21,17,32,13.80
2012,04,21,17,33,13.80
2012,04,21,17,34,13.80
2012,04,21,17,35,13.80
2012,04,21,17,36,13.80
2012,04,21,17,37,13.70
2012,04,21,17,38,13.70
2012,04,21,17,39,13.70
2012,04,21,17,40,13.70
2012,04,21,17,41,13.70
2012,04,21,17,42,13.70
2012,04,21,17,43,13.70
2012,04,21,17,44,13.70
2012,04,21,17,45,13.60
2012,04,21,17,46,13.60
2012,04,21,17,47,13.60